This demonstration page uses our WeatherBlox Daily Observations layout. Learn more.

Left ArrowRight Arrow

Hourly Observations for July 31, 2016

Temp ( °F °C ) Dew Point ( °F °C ) Humidity (%) Winds ( mph kmh ) Pressure ( in mb ) Visibility ( mi km ) Precip ( " mm )
12:53 am 00:53 Cloudy 71 21.7 68 20 90 90 N N/A 29.97 1015 10 16 N/A
1:53 am 01:53 Clear 69 20.6 67 19.4 93 93 N N/A 29.97 1015 8 13 N/A
2:53 am 02:53 Mostly Clear 68 20 65 18.3 90 90 N N/A 29.96 1015 8 13 N/A
3:53 am 03:53 Clear 67 19.4 65 18.3 93 93 N N/A 29.96 1015 8 13 N/A
4:53 am 04:53 Clear 69 20.6 68 20 96 96 WSW 3 6 29.96 1015 8 13 N/A
5:53 am 05:53 Clear 69 20.6 67 19.4 93 93 N N/A 29.98 1015 7 11 N/A
6:53 am 06:53 Sunny with Mist and Fog 65 18.3 64 17.8 97 97 N N/A 30.00 1016 2 3 N/A
7:04 am 07:04 Sunny with Mist and Fog 67 19.4 65 18.3 93 93 N N/A 30.03 1017 4 6 N/A
7:53 am 07:53 Sunny 71 21.7 68 20 90 90 N N/A 30.01 1016 7 11 N/A
8:53 am 08:53 Sunny 75 23.9 68 20 79 79 WSW 3 6 30.02 1017 10 16 N/A
9:53 am 09:53 Sunny 79 26.1 68 20 69 69 SW 5 7 30.03 1017 10 16 N/A
10:53 am 10:53 Partly Cloudy 80 26.7 67 19.4 64 64 VRB 3 6 30.03 1017 10 16 N/A
11:53 am 11:53 Mostly Cloudy 83 28.3 65 18.3 55 55 VRB 5 7 30.03 1017 10 16 N/A
12:53 pm 12:53 Mostly Cloudy 86 30 65 18.3 49 49 WSW 8 13 30.03 1017 10 16 N/A
1:53 pm 13:53 Mostly Sunny 85 29.4 64 17.8 50 50 W 7 11 30.02 1017 10 16 N/A
2:53 pm 14:53 Mostly Cloudy 87 30.6 65 18.3 48 48 WSW 5 7 30.01 1016 10 16 N/A
3:53 pm 15:53 Partly Cloudy 88 31.1 64 17.8 45 45 W 8 13 30.00 1016 10 16 N/A
4:53 pm 16:53 Mostly Sunny 88 31.1 65 18.3 46 46 undefined N/A 29.98 1015 10 16 N/A
5:53 pm 17:53 Partly Cloudy 86 30 65 18.3 49 49 W 7 11 29.98 1015 10 16 N/A
6:53 pm 18:53 Sunny 86 30 65 18.3 49 49 VRB 7 11 29.98 1015 10 16 N/A
7:53 pm 19:53 Sunny 85 29.4 66 18.9 53 53 WNW 8 13 29.98 1015 10 16 N/A
8:53 pm 20:53 Clear 80 26.7 66 18.9 62 62 W 3 6 30.00 1016 10 16 N/A
9:53 pm 21:53 Clear 73 22.8 68 20 84 84 N N/A 30.02 1017 10 16 N/A
10:53 pm 22:53 Clear 73 22.8 68 20 84 84 N N/A 30.03 1017 10 16 N/A
11:53 pm 23:53 Clear 70 21.1 67 19.4 90 90 N N/A 30.04 1017 10 16 N/A

Powered by AerisWeather